IR0UGI-3 Weather Reports


time (UTC)temp
F
wind
direction
speed
knots
gust
knots
rain 1hr
in
rain 24hr
in
rain mn
in
humidity
%
barometer
mb
20260506004004 53 46 12.2 26.1 0.00 0.09 0.00 83 1021.6
20260506003004 53 49 10.4 23.5 0.00 0.09 0.00 82 1021.8
20260506001004 53 54 8.7 23.5 0.00 0.09 0.00 81 1021.9
20260506000004 53 45 11.3 26.1 0.00 0.09 0.00 80 1022.0
20260505235005 54 56 11.3 23.5 0.00 0.09 0.00 77 1021.9
20260505234004 54 50 12.2 20.9 0.00 0.09 0.00 78 1022.3
20260505233004 54 27 13.9 21.7 0.00 0.09 0.00 76 1022.3
20260505232004 53 23 8.7 19.1 0.00 0.09 0.00 76 1022.5
20260505231004 53 21 8.7 13.9 0.00 0.09 0.00 78 1022.5
20260505230004 53 9 8.7 13.9 0.00 0.09 0.00 78 1022.8
20260505225005 53 355 5.2 13.0 0.00 0.09 0.00 77 1022.9
20260505224004 54 4 9.6 13.9 0.00 0.09 0.00 70 1022.8
20260505222004 53 44 12.2 18.2 0.01 0.09 0.00 69 1022.5
20260505221004 53 21 9.6 14.8 0.01 0.09 0.00 74 1022.8
20260505220008 53 14 9.6 18.2 0.01 0.09 0.00 74 1022.9
20260505215004 53 16 8.7 17.4 0.01 0.09 0.09 84 1023.0
20260505214004 53 359 10.4 18.2 0.01 0.09 0.09 83 1023.1
20260505213004 53 10 7.8 13.9 0.00 0.08 0.08 86 1023.3
20260505212004 53 6 12.2 15.6 0.00 0.08 0.08 86 1023.4
20260505210004 52 31 7.8 13.0 0.01 0.08 0.08 93 1023.5
20260505205004 52 26 7.0 9.6 0.01 0.08 0.08 93 1023.3
20260505203004 53 19 7.0 14.8 0.01 0.08 0.08 95 1023.5
20260505202004 53 12 13.0 19.1 0.01 0.08 0.08 95 1023.5
20260505201004 54 14 14.8 18.2 0.00 0.07 0.07 98 1023.4
20260505200004 55 23 8.7 19.1 0.00 0.07 0.07 99 1023.4
20260505195004 55 26 8.7 11.3 0.00 0.07 0.07 96 1023.3
20260505194005 55 31 7.0 9.6 0.00 0.07 0.07 96 1023.4
20260505193004 55 19 6.1 7.8 0.00 0.07 0.07 97 1023.2
20260505192004 55 30 6.1 9.6 0.00 0.07 0.07 98 1023.1
20260505191004 55 29 7.0 9.6 0.00 0.07 0.07 97 1022.9
20260505190004 55 23 7.0 9.6 0.00 0.07 0.07 96 1022.9
20260505185004 55 42 7.0 11.3 0.00 0.07 0.07 95 1022.9
20260505184004 55 40 8.7 12.2 0.00 0.07 0.07 94 1023.0
20260505183004 55 12 7.0 7.8 0.00 0.07 0.07 93 1022.7
20260505181004 55 41 8.7 11.3 0.00 0.07 0.07 90 1022.9
20260505175004 56 23 5.2 9.6 0.00 0.07 0.07 89 1023.0
20260505174003 56 25 6.1 11.3 0.00 0.07 0.07 88 1022.9
20260505173004 56 13 7.0 12.2 0.00 0.07 0.07 86 1022.9
20260505172004 56 18 6.1 11.3 0.00 0.07 0.07 91 1023.2
20260505171004 57 12 7.0 11.3 0.00 0.07 0.07 89 1022.9
20260505165003 58 14 6.1 11.3 0.00 0.07 0.07 90 1023.0
20260505164004 58 22 6.1 11.3 0.00 0.07 0.07 89 1022.9
20260505163004 59 4 3.5 7.8 0.00 0.07 0.07 87 1023.0
20260505162006 59 20 5.2 9.6 0.00 0.07 0.07 90 1023.0
20260505161005 59 17 5.2 9.6 0.00 0.07 0.07 86 1023.0
20260505153006 59 28 4.3 11.3 0.00 0.07 0.07 85 1023.1
20260505152005 59 30 6.1 11.3 0.00 0.07 0.07 85 1023.1
20260505125005 58 29 7.8 19.1 0.00 0.07 0.07 84 1023.6
20260505124005 57 46 7.0 15.6 0.00 0.07 0.07 87 1023.6
20260505123006 56 36 11.3 20.9 0.00 0.07 0.07 89 1023.7
20260505122005 55 43 13.0 23.5 0.00 0.07 0.07 91 1023.7
20260505121005 55 44 7.8 17.4 0.00 0.07 0.07 93 1023.8
20260505120006 54 43 9.6 21.7 0.00 0.07 0.07 95 1023.9
20260505115006 54 48 12.2 21.7 0.00 0.07 0.07 94 1023.9
20260505114006 54 41 13.0 19.1 0.00 0.07 0.07 96 1024.1
20260505113005 54 24 10.4 23.5 0.00 0.07 0.07 95 1024.0
20260505112005 54 31 13.9 23.5 0.00 0.07 0.07 93 1024.1
20260505102005 54 17 11.3 17.4 0.01 0.07 0.07 95 1024.2
20260505101005 53 32 8.7 13.0 0.01 0.07 0.07 96 1024.4
20260505100006 54 28 10.4 13.0 0.01 0.07 0.07 94 1024.5
20260505095005 55 27 8.7 13.0 0.00 0.06 0.06 94 1024.3
20260505094005 54 29 9.6 13.9 0.00 0.06 0.06 93 1024.4
20260505093005 55 39 9.6 13.0 0.00 0.06 0.06 92 1024.3
20260505092005 56 31 7.8 13.0 0.00 0.06 0.06 91 1024.3
20260505091005 56 30 5.2 7.8 0.00 0.06 0.06 89 1024.2
20260505090005 56 32 3.5 9.6 0.00 0.06 0.06 88 1024.3
20260505085005 56 34 7.0 12.2 0.00 0.06 0.06 87 1024.4
20260505083005 57 38 4.3 9.6 0.00 0.06 0.06 85 1024.2
20260505081005 56 357 4.3 9.6 0.00 0.06 0.06 85 1024.2
20260505080005 56 34 7.0 11.3 0.00 0.06 0.06 83 1024.0
20260505075006 55 46 8.7 11.3 0.00 0.06 0.06 89 1024.2
20260505074005 54 38 8.7 15.6 0.00 0.06 0.06 90 1024.2
20260505073005 53 31 7.0 18.2 0.00 0.06 0.06 93 1024.2
20260505072005 53 71 12.2 23.5 0.00 0.06 0.06 94 1024.3
20260505071005 53 43 9.6 20.9 0.00 0.06 0.06 92 1024.4
20260505070005 53 43 7.8 23.5 0.00 0.06 0.06 93 1024.6
20260505065005 53 43 13.0 20.0 0.04 0.06 0.06 93 1024.3
20260505064005 53 58 10.4 20.9 0.06 0.06 0.06 93 1024.1
20260505063005 53 48 12.2 23.5 0.06 0.06 0.06 92 1024.3
20260505061005 52 65 13.0 23.5 0.06 0.06 0.06 96 1024.2
20260505055006 52 42 7.8 15.6 0.02 0.02 0.02 95 1024.2
20260505054005 52 32 8.7 12.2 0.00 0.00 0.00 91 1024.0
20260505053005 53 24 3.5 9.6 0.00 0.00 0.00 91 1024.2
20260505052005 53 32 4.3 12.2 0.00 0.00 0.00 89 1024.2
20260505051005 53 35 6.1 7.0 0.00 0.00 0.00 88 1024.2
20260505041005 53 41 7.8 14.8 0.00 0.00 0.00 90 1024.0
20260505040005 53 37 9.6 14.8 0.00 0.00 0.00 91 1023.7
20260505035005 53 34 12.2 20.0 0.00 0.00 0.00 88 1023.8
20260505034005 54 64 11.3 18.2 0.00 0.00 0.00 85 1023.8
20260505033004 54 54 7.0 15.6 0.00 0.00 0.00 83 1024.1
20260505031005 54 81 4.3 14.8 0.00 0.00 0.00 83 1024.1
20260505030005 54 58 7.0 14.8 0.00 0.00 0.00 82 1024.2
20260505025005 54 46 5.2 13.9 0.00 0.00 0.00 82 1024.1
20260505024004 54 69 7.8 15.6 0.00 0.00 0.00 82 1024.2
20260505023004 54 52 5.2 13.0 0.00 0.00 0.00 83 1024.1
20260505022005 54 51 6.1 9.6 0.00 0.00 0.00 83 1024.1
20260505021005 55 58 4.3 12.2 0.00 0.00 0.00 80 1024.1
20260505020005 55 32 6.1 13.0 0.00 0.00 0.00 79 1024.3
20260505015005 56 54 7.0 11.3 0.00 0.00 0.00 78 1024.4
20260505014005 56 36 5.2 11.3 0.00 0.00 0.00 77 1024.2
20260505013005 56 46 4.3 12.2 0.00 0.00 0.00 77 1024.3
20260505012005 56 48 6.1 20.9 0.00 0.00 0.00 76 1024.5
20260505011005 56 65 7.8 19.1 0.00 0.00 0.00 75 1024.2
20260505010005 56 54 10.4 20.0 0.00 0.01 0.00 76 1024.2
20260505005005 56 55 9.6 17.4 0.00 0.01 0.00 79 1024.4